DAL3382 KTYS-KCLT

Flight info

Callsign DAL3382
Flight time 0h 44m
Altitude 21000
Route COMDY FILPZ4
Aircraft B738/M-SDE2E3FGHIRWXY/LB1

Departure

Time 2026-05-08 01:14
Airport McGhee Tyson Airport (KTYS)

Arrival

Time 2026-05-08 01:58
Airport Charlotte Douglas International Airport (KCLT)
Time Latitude Longitude Altitude Speed Heading
2026-05-08 00:44 35.80573 -83.99169 954 ft 0 kts 44°
2026-05-08 01:02 35.80572 -83.99170 954 ft 1 kts 44°
2026-05-08 01:02 35.80562 -83.99183 953 ft 2 kts 44°
2026-05-08 01:02 35.80551 -83.99195 953 ft 2 kts 44°
2026-05-08 01:03 35.80539 -83.99209 952 ft 2 kts 44°
2026-05-08 01:03 35.80532 -83.99217 952 ft 1 kts 44°
2026-05-08 01:03 35.80519 -83.99225 952 ft 2 kts 358°
2026-05-08 01:03 35.80505 -83.99219 951 ft 2 kts 319°
2026-05-08 01:04 35.80500 -83.99213 951 ft 1 kts 300°
2026-05-08 01:04 35.80498 -83.99209 951 ft 0 kts 306°
2026-05-08 01:05 35.80504 -83.99219 951 ft 3 kts 306°
2026-05-08 01:06 35.80517 -83.99240 951 ft 5 kts 308°
2026-05-08 01:06 35.80548 -83.99289 953 ft 9 kts 308°
2026-05-08 01:06 35.80594 -83.99362 954 ft 11 kts 307°
2026-05-08 01:06 35.80656 -83.99422 957 ft 11 kts 356°
2026-05-08 01:07 35.80714 -83.99374 958 ft 11 kts 42°
2026-05-08 01:07 35.80783 -83.99288 960 ft 14 kts 44°
2026-05-08 01:07 35.80846 -83.99211 961 ft 11 kts 45°
2026-05-08 01:07 35.80900 -83.99144 962 ft 12 kts 44°
2026-05-08 01:08 35.80974 -83.99054 963 ft 14 kts 45°
2026-05-08 01:08 35.81048 -83.98961 964 ft 15 kts 46°
2026-05-08 01:08 35.81120 -83.98872 964 ft 14 kts 47°
2026-05-08 01:08 35.81194 -83.98785 963 ft 18 kts 43°
2026-05-08 01:09 35.81285 -83.98677 962 ft 17 kts 44°
2026-05-08 01:09 35.81368 -83.98574 961 ft 17 kts 44°
2026-05-08 01:09 35.81462 -83.98461 958 ft 19 kts 43°
2026-05-08 01:09 35.81545 -83.98361 956 ft 10 kts 44°
2026-05-08 01:10 35.81578 -83.98332 955 ft 4 kts 15°
2026-05-08 01:10 35.81582 -83.98331 956 ft 0 kts
2026-05-08 01:13 35.81612 -83.98339 956 ft 8 kts 332°
2026-05-08 01:13 35.81631 -83.98410 960 ft 8 kts 243°
2026-05-08 01:13 35.81567 -83.98492 962 ft 32 kts 224°
2026-05-08 01:13 35.81205 -83.98936 967 ft 112 kts 224°
2026-05-08 01:14 35.80491 -83.99810 1016 ft 169 kts 224°
2026-05-08 01:14 35.79685 -84.00843 1799 ft 173 kts 226°
2026-05-08 01:14 35.78795 -84.01951 2397 ft 196 kts 226°
2026-05-08 01:14 35.77764 -84.03161 2966 ft 216 kts 226°
2026-05-08 01:15 35.76608 -84.04458 3544 ft 233 kts 226°
2026-05-08 01:15 35.75372 -84.05815 4243 ft 245 kts 224°
2026-05-08 01:15 35.74090 -84.07237 4956 ft 255 kts 225°
2026-05-08 01:15 35.72766 -84.08727 5789 ft 261 kts 225°
2026-05-08 01:16 35.71449 -84.10228 6750 ft 261 kts 226°
2026-05-08 01:16 35.70122 -84.11729 7693 ft 261 kts 226°
2026-05-08 01:16 35.68775 -84.13199 8594 ft 263 kts 226°
2026-05-08 01:16 35.67391 -84.14652 9458 ft 265 kts 226°
2026-05-08 01:17 35.65952 -84.16124 9890 ft 274 kts 225°
2026-05-08 01:17 35.64473 -84.17610 10005 ft 275 kts 225°
2026-05-08 01:17 35.63000 -84.19070 10014 ft 268 kts 225°
2026-05-08 01:17 35.61555 -84.20487 10025 ft 263 kts 225°
2026-05-08 01:18 35.60123 -84.21888 10031 ft 264 kts 225°
2026-05-08 01:18 35.58679 -84.23305 10030 ft 267 kts 225°
2026-05-08 01:18 35.57229 -84.24743 10029 ft 268 kts 225°
2026-05-08 01:18 35.55783 -84.26178 10024 ft 265 kts 225°
2026-05-08 01:19 35.54346 -84.27592 10026 ft 265 kts 225°
2026-05-08 01:19 35.52901 -84.29017 10030 ft 267 kts 225°
2026-05-08 01:19 35.51458 -84.30443 10023 ft 265 kts 225°
2026-05-08 01:19 35.50020 -84.31860 10022 ft 264 kts 225°
2026-05-08 01:20 35.48582 -84.33277 10025 ft 266 kts 224°
2026-05-08 01:20 35.46903 -84.34428 10252 ft 290 kts 207°
2026-05-08 01:20 35.45015 -84.35115 11387 ft 286 kts 197°
2026-05-08 01:20 35.42979 -84.34959 12102 ft 309 kts 168°
2026-05-08 01:21 35.41100 -84.33541 12734 ft 332 kts 136°
2026-05-08 01:21 35.39901 -84.31092 13330 ft 346 kts 106°
2026-05-08 01:21 35.39693 -84.28183 13989 ft 347 kts 81°
2026-05-08 01:21 35.40120 -84.25255 14561 ft 351 kts 72°
2026-05-08 01:22 35.40718 -84.22343 15160 ft 357 kts 71°
2026-05-08 01:22 35.41288 -84.19372 15824 ft 362 kts 74°
2026-05-08 01:22 35.41770 -84.16326 16383 ft 370 kts 77°
2026-05-08 01:22 35.42177 -84.13202 17013 ft 374 kts 78°
2026-05-08 01:23 35.42549 -84.10035 17519 ft 381 kts 79°
2026-05-08 01:23 35.42921 -84.06795 18057 ft 387 kts 79°
2026-05-08 01:23 35.43293 -84.03533 18695 ft 389 kts 79°
2026-05-08 01:23 35.43676 -84.00230 19215 ft 395 kts 79°
2026-05-08 01:24 35.44063 -83.96895 19805 ft 398 kts 79°
2026-05-08 01:24 35.44454 -83.93528 20324 ft 402 kts 79°
2026-05-08 01:24 35.44860 -83.90131 20845 ft 407 kts 79°
2026-05-08 01:24 35.45282 -83.86645 20994 ft 417 kts 79°
2026-05-08 01:25 35.45702 -83.83124 21022 ft 417 kts 79°
2026-05-08 01:25 35.46107 -83.79644 21025 ft 410 kts 80°
2026-05-08 01:25 35.46500 -83.76208 21023 ft 406 kts 80°
2026-05-08 01:25 35.46889 -83.72777 21039 ft 407 kts 79°
2026-05-08 01:26 35.47281 -83.69332 21025 ft 409 kts 79°
2026-05-08 01:26 35.47669 -83.65877 21035 ft 410 kts 79°
2026-05-08 01:26 35.48060 -83.62396 21039 ft 420 kts 79°
2026-05-08 01:26 35.48480 -83.58781 21031 ft 438 kts 79°
2026-05-08 01:27 35.48921 -83.55016 21029 ft 455 kts 80°
2026-05-08 01:27 35.49365 -83.51119 21112 ft 469 kts 79°
2026-05-08 01:27 35.49813 -83.47149 21193 ft 472 kts 80°
2026-05-08 01:27 35.50264 -83.43167 21144 ft 468 kts 80°
2026-05-08 01:28 35.50705 -83.39232 21057 ft 461 kts 80°
2026-05-08 01:28 35.51137 -83.35363 20941 ft 457 kts 80°
2026-05-08 01:28 35.51560 -83.31505 20816 ft 458 kts 82°
2026-05-08 01:28 35.51885 -83.27585 20744 ft 460 kts 84°
2026-05-08 01:29 35.52104 -83.23693 20820 ft 458 kts 85°
2026-05-08 01:29 35.52280 -83.19783 20788 ft 463 kts 87°
2026-05-08 01:29 35.52442 -83.15836 20732 ft 464 kts 86°
2026-05-08 01:29 35.52604 -83.11908 20724 ft 460 kts 86°
2026-05-08 01:30 35.52771 -83.07993 20653 ft 461 kts 86°
2026-05-08 01:30 35.52947 -83.04068 20534 ft 461 kts 85°
2026-05-08 01:30 35.53131 -83.00154 20403 ft 460 kts 85°
2026-05-08 01:30 35.53319 -82.96250 20383 ft 458 kts 86°
2026-05-08 01:31 35.53512 -82.92352 20461 ft 459 kts 85°
2026-05-08 01:31 35.53708 -82.88434 20518 ft 462 kts 85°
2026-05-08 01:31 35.53906 -82.84505 20299 ft 461 kts 85°
2026-05-08 01:31 35.54099 -82.80618 20052 ft 453 kts 85°
2026-05-08 01:32 35.54288 -82.76797 19810 ft 445 kts 85°
2026-05-08 01:32 35.54470 -82.73043 19582 ft 438 kts 85°
2026-05-08 01:32 35.54644 -82.69333 19341 ft 436 kts 85°
2026-05-08 01:32 35.54824 -82.65630 19094 ft 436 kts 85°
2026-05-08 01:33 35.55004 -82.61919 18854 ft 437 kts 85°
2026-05-08 01:33 35.55183 -82.58203 18613 ft 436 kts 85°
2026-05-08 01:33 35.55365 -82.54501 18374 ft 433 kts 85°
2026-05-08 01:33 35.55538 -82.50827 18139 ft 429 kts 85°
2026-05-08 01:34 35.55703 -82.47189 17903 ft 426 kts 85°
2026-05-08 01:34 35.55867 -82.43554 17666 ft 425 kts 85°
2026-05-08 01:34 35.56033 -82.39948 17438 ft 424 kts 85°
2026-05-08 01:34 35.56201 -82.36343 17198 ft 421 kts 85°
2026-05-08 01:35 35.56363 -82.32778 16965 ft 417 kts 85°
2026-05-08 01:35 35.56515 -82.29247 16726 ft 415 kts 86°
2026-05-08 01:35 35.56671 -82.25726 16500 ft 413 kts 85°
2026-05-08 01:35 35.56828 -82.22224 16251 ft 411 kts 86°
2026-05-08 01:36 35.56985 -82.18721 16009 ft 408 kts 85°
2026-05-08 01:36 35.57141 -82.15265 15774 ft 405 kts 85°
2026-05-08 01:36 35.57294 -82.11828 15516 ft 402 kts 85°
2026-05-08 01:36 35.57352 -82.08416 15273 ft 400 kts 91°
2026-05-08 01:37 35.57028 -82.05046 15045 ft 397 kts 105°
2026-05-08 01:37 35.56182 -82.01873 15019 ft 389 kts 115°
2026-05-08 01:37 35.55114 -81.98813 15021 ft 391 kts 117°
2026-05-08 01:37 35.53971 -81.95776 15013 ft 395 kts 118°
2026-05-08 01:38 35.52807 -81.92720 15011 ft 397 kts 118°
2026-05-08 01:38 35.51649 -81.89662 15008 ft 395 kts 118°
2026-05-08 01:38 35.50505 -81.86608 15009 ft 395 kts 117°
2026-05-08 01:38 35.49365 -81.83531 15011 ft 397 kts 117°
2026-05-08 01:39 35.48242 -81.80444 15009 ft 395 kts 117°
2026-05-08 01:39 35.47128 -81.77382 15004 ft 393 kts 117°
2026-05-08 01:39 35.46008 -81.74307 15010 ft 396 kts 116°
2026-05-08 01:39 35.44881 -81.71215 15005 ft 395 kts 116°
2026-05-08 01:40 35.43785 -81.68182 14996 ft 384 kts 115°
2026-05-08 01:40 35.42819 -81.65201 15004 ft 371 kts 112°
2026-05-08 01:40 35.41985 -81.62253 14995 ft 361 kts 110°
2026-05-08 01:40 35.41210 -81.59338 15002 ft 361 kts 109°
2026-05-08 01:41 35.40423 -81.56390 14998 ft 367 kts 110°
2026-05-08 01:41 35.39611 -81.53415 15082 ft 370 kts 111°
2026-05-08 01:41 35.38772 -81.50406 15193 ft 381 kts 111°
2026-05-08 01:41 35.37859 -81.47254 15050 ft 406 kts 111°
2026-05-08 01:42 35.36903 -81.43959 14618 ft 416 kts 110°
2026-05-08 01:42 35.35960 -81.40639 13969 ft 410 kts 110°
2026-05-08 01:42 35.35051 -81.37381 13394 ft 401 kts 110°
2026-05-08 01:42 35.34164 -81.34201 12862 ft 391 kts 111°
2026-05-08 01:43 35.33294 -81.31105 12357 ft 381 kts 111°
2026-05-08 01:43 35.32441 -81.28085 11849 ft 371 kts 111°
2026-05-08 01:43 35.31604 -81.25140 11371 ft 362 kts 111°
2026-05-08 01:43 35.30789 -81.22285 11022 ft 348 kts 112°
2026-05-08 01:44 35.30013 -81.19561 11010 ft 333 kts 112°
2026-05-08 01:44 35.29259 -81.16915 10987 ft 327 kts 112°
2026-05-08 01:44 35.28526 -81.14343 10996 ft 313 kts 112°
2026-05-08 01:44 35.27825 -81.11888 10982 ft 297 kts 112°
2026-05-08 01:45 35.27022 -81.09658 10970 ft 277 kts 125°
2026-05-08 01:45 35.25829 -81.07942 10810 ft 254 kts 155°
2026-05-08 01:45 35.24290 -81.07146 10589 ft 233 kts 179°
2026-05-08 01:45 35.22717 -81.06951 10228 ft 224 kts 186°
2026-05-08 01:46 35.21166 -81.06834 9860 ft 223 kts 186°
2026-05-08 01:46 35.19625 -81.06698 9491 ft 221 kts 185°
2026-05-08 01:46 35.18083 -81.06558 9128 ft 224 kts 185°
2026-05-08 01:46 35.16472 -81.06425 8767 ft 242 kts 184°
2026-05-08 01:47 35.14673 -81.06288 8403 ft 274 kts 182°
2026-05-08 01:47 35.12709 -81.06122 8084 ft 286 kts 181°
2026-05-08 01:47 35.10772 -81.05930 8004 ft 273 kts 181°
2026-05-08 01:48 35.06969 -81.05571 7272 ft 276 kts 181°
2026-05-08 01:48 35.05048 -81.05402 6877 ft 277 kts 180°
2026-05-08 01:48 35.03121 -81.05207 6480 ft 279 kts 179°
2026-05-08 01:48 35.01189 -81.04999 6091 ft 278 kts 178°
2026-05-08 01:49 34.99259 -81.04792 5712 ft 279 kts 178°
2026-05-08 01:49 34.97315 -81.04589 5347 ft 280 kts 177°
2026-05-08 01:49 34.95423 -81.04391 5186 ft 265 kts 177°
2026-05-08 01:49 34.93624 -81.04198 4869 ft 255 kts 175°
2026-05-08 01:50 34.91939 -81.03666 4543 ft 248 kts 153°
2026-05-08 01:50 34.90597 -81.02432 4228 ft 240 kts 127°
2026-05-08 01:50 34.89827 -81.00696 3988 ft 228 kts 99°
2026-05-08 01:50 34.89771 -80.98832 3991 ft 219 kts 73°
2026-05-08 01:51 34.90402 -80.97150 3990 ft 220 kts 47°
2026-05-08 01:51 34.91546 -80.96004 3995 ft 206 kts 25°
2026-05-08 01:51 34.92785 -80.95273 3980 ft 190 kts 22°
2026-05-08 01:51 34.93966 -80.94609 3987 ft 183 kts 22°
2026-05-08 01:52 34.95141 -80.93980 4000 ft 185 kts 19°
2026-05-08 01:52 34.96376 -80.93472 3988 ft 187 kts 11°
2026-05-08 01:52 34.97675 -80.93276 3988 ft 186 kts
2026-05-08 01:52 34.98974 -80.93310 3989 ft 186 kts 356°
2026-05-08 01:53 35.00259 -80.93406 3988 ft 184 kts 355°
2026-05-08 01:53 35.01537 -80.93511 4002 ft 180 kts 355°
2026-05-08 01:53 35.02771 -80.93612 3982 ft 174 kts 355°
2026-05-08 01:53 35.03981 -80.93715 3870 ft 175 kts 355°
2026-05-08 01:54 35.05191 -80.93819 3609 ft 171 kts 356°
2026-05-08 01:54 35.06351 -80.93918 3385 ft 165 kts 356°
2026-05-08 01:54 35.07499 -80.94015 3158 ft 165 kts 356°
2026-05-08 01:54 35.08615 -80.94112 2938 ft 158 kts 357°
2026-05-08 01:55 35.09695 -80.94204 2718 ft 151 kts 358°
2026-05-08 01:55 35.10752 -80.94291 2537 ft 153 kts 358°
2026-05-08 01:55 35.11812 -80.94382 2300 ft 150 kts 358°
2026-05-08 01:55 35.12837 -80.94470 2111 ft 146 kts 358°
2026-05-08 01:56 35.13841 -80.94556 1907 ft 142 kts 358°
2026-05-08 01:56 35.14815 -80.94638 1728 ft 139 kts 358°
2026-05-08 01:56 35.15788 -80.94725 1546 ft 142 kts 358°
2026-05-08 01:56 35.16772 -80.94811 1335 ft 138 kts 357°
2026-05-08 01:57 35.17728 -80.94908 1134 ft 138 kts 358°
2026-05-08 01:57 35.18675 -80.94987 977 ft 136 kts 358°
2026-05-08 01:57 35.19618 -80.95053 825 ft 135 kts 359°
2026-05-08 01:57 35.20533 -80.95132 702 ft 127 kts 358°
2026-05-08 01:58 35.21202 -80.95180 712 ft 63 kts 358°
2026-05-08 01:58 35.21485 -80.95201 718 ft 32 kts 356°
2026-05-08 01:58 35.21697 -80.95220 723 ft 26 kts 356°
2026-05-08 01:58 35.21850 -80.95214 726 ft 22 kts
2026-05-08 01:59 35.21983 -80.95162 727 ft 18 kts 21°
2026-05-08 01:59 35.22051 -80.95079 729 ft 11 kts 94°
2026-05-08 01:59 35.21985 -80.95046 727 ft 11 kts 175°
2026-05-08 01:59 35.21895 -80.95028 726 ft 13 kts 161°
2026-05-08 02:00 35.21876 -80.94956 725 ft 10 kts 76°
2026-05-08 02:00 35.21919 -80.94887 726 ft 9 kts 39°
2026-05-08 02:00 35.21961 -80.94852 727 ft 4 kts 31°
2026-05-08 02:00 35.21974 -80.94843 727 ft 0 kts 31°